SCP
0 0 0 0 0 0 0 -0 -0 -0 0 0 0 0 -0 0 -0 -0 -0 -1 -1 -1 -0 -0 -1 -0 -0 -0 -0 -0 -0 -0 -0 -0 0 0 0 -0 -0 -0 -0 -0 0 0 0 0 0 0 0
0 0 0 0 0 0 0 0 -0 0 0 0 0 0 0 0 0 -0 -0 -1 -1 -1 -0 -0 -1 -1 -0 -0 -0 -0 -0 -0 -0 -0 0 0 0 -0 -0 -0 -0 -0 -0 0 0 0 0 0 0
0 0 0 0 0 0 0 0 -0 -0 0 0 0 0 0 -0 0 0 -0 -1 -1 -0 -0 -0 -1 -1 -0 -0 -0 -0 -0 -0 -0 -0 -0 0 -0 -0 -0 0 0 0 0 0 0 0 0 0 0
0 0 0 0 0 0 0 0 0 0 0 0 0 0 0 0 0 0 -1 -1 -0 -0 -0 -0 -0 -1 -1 -0 -0 -0 -0 -0 -0 -0 -0 -0 -0 -0 0 0 0 0 -0 0 0 0 0 0 -0
0 0 0 0 0 -0 -0 0 0 -0 0 0 0 0 0 1 0 -0 -0 -0 -0 0 0 -0 -0 -1 -1 -0 -0 -0 -0 -0 -0 -0 -0 -0 -0 0 0 0 0 0 0 -0 0 0 -0 -0 -0
0 0 0 0 0 0 0 0 0 0 0 0 0 0 0 0 1 0 0 0 -0 0 0 0 -0 -0 -1 -0 -0 -0 -0 -0 -0 -0 -0 -0 -0 0 0 0 0 0 0 0 -0 -0 -0 -0 -0
0 0 0 0 0 0 0 0 0 0 0 0 0 0 0 1 0 0 0 0 1 1 1 0 0 0 0 -0 -0 -0 0 0 -0 -0 0 -0 0 0 0 0 0 0 0 0 -0 -0 -0 -0 -0
0 0 0 0 0 0 0 0 -0 -0 0 0 0 0 1 1 1 0 0 2 1 1 1 1 1 1 1 1 0 -0 0 0 0 0 0 0 0 0 0 0 0 0 0 0 0 0 -0 -0 -0
0 0 0 0 0 0 0 0 -0 0 0 0 0 0 0 2 1 1 1 1 2 1 1 1 1 1 1 1 1 0 0 0 0 0 0 0 0 0 0 0 0 0 0 0 0 0 -0 -0 -0
0 0 0 0 0 0 0 0 0 0 0 0 0 0 0 1 1 1 1 1 1 1 1 1 1 2 1 1 1 1 1 1 1 1 1 0 0 0 0 0 0 0 0 0 0 0 0 0 0
0 0 0 0 0 0 0 0 0 0 0 0 0 0 0 0 0 1 1 1 1 1 1 1 1 1 1 2 2 2 2 2 1 1 1 0 0 0 0 0 0 0 0 0 0 0 0 0 0
0 0 0 0 0 0 0 0 -0 0 0 0 0 0 0 0 0 0 0 1 1 2 1 1 1 1 0 0 2 2 2 1 1 1 1 0 0 0 0 0 0 0 0 0 0 0 0 0 0
0 0 0 0 0 0 0 0 0 0 0 0 0 0 0 0 0 0 0 0 1 2 2 1 1 0 0 0 1 1 1 1 1 0 0 0 0 0 0 0 0 0 0 0 0 0 0 0 0
0 0 0 0 0 0 0 0 0 0 0 0 0 0 0 0 0 -0 0 0 0 0 2 3 1 1 0 1 1 0 0 0 0 0 0 0 0 0 0 0 0 0 0 0 0 0 0 0 0
0 0 0 0 0 0 0 0 0 0 0 0 0 0 0 0 -0 -0 0 0 0 0 1 3 2 1 1 0 0 0 0 0 0 0 0 0 0 0 0 0 0 0 0 0 0 0 0 0 0
0 0 0 0 0 0 0 0 0 0 0 0 0 0 0 0 0 0 0 0 0 0 1 2 3 1 0 0 3 0 0 0 0 0 0 0 0 0 0 0 0 0 0 0 0 0 0 0 0
0 0 0 0 0 0 0 0 0 0 0 0 0 0 0 0 0 0 0 0 0 0 0 1 1 0 2 3 4 4 2 2 2 1 1 0 0 0 0 0 1 1 1 0 0 0 0 0 0
0 0 0 0 0 -0 0 0 0 0 0 0 0 0 0 0 0 0 0 0 0 0 1 1 2 1 0 2 4 4 1 0 1 0 0 0 0 0 0 0 0 0 0 1 0 0 1 1 1
0 0 0 0 -0 -0 0 0 0 0 0 0 0 0 0 0 0 0 0 0 0 0 1 2 0 0 0 4 0 1 1 0 0 0 0 0 0 0 0 0 0 0 0 0 0 0 0 0 0
0 0 0 -0 -0 0 0 0 0 0 0 0 0 0 0 0 0 0 0 0 0 1 1 3 3 2 1 1 0 1 1 0 0 0 0 0 0 0 0 0 0 0 0 0 0 0 0 0 0
0 0 0 0 0 0 0 0 0 0 0 0 0 0 0 0 0 0 0 0 3 3 2 3 2 1 1 1 0 0 0 0 0 0 0 0 0 0 0 0 0 0 0 0 0 0 0 0 0
0 0 0 0 0 0 0 0 0 0 -0 0 0 0 0 0 0 0 0 2 3 3 3 4 2 1 1 0 0 0 0 0 0 0 0 0 0 0 0 0 0 0 0 0 0 0 0 0 0
0 0 0 0 0 0 0 0 0 0 0 0 -0 0 0 0 0 0 1 2 2 2 2 2 2 2 2 1 0 0 0 0 0 0 0 0 0 0 0 0 0 0 0 0 0 1 1 1 0
0 -0 0 0 0 0 0 0 0 0 0 0 0 0 0 0 0 0 0 0 0 1 2 2 2 1 0 0 0 0 0 0 0 0 0 0 0 0 0 0 0 0 0 0 0 0 -0 -0 -0
0 0 0 0 0 0 0 0 0 -0 0 0 0 0 0 0 0 0 0 0 0 0 1 3 3 1 1 0 0 0 0 0 0 0 0 0 0 0 0 0 0 0 1 0 0 0 -0 -0 -0
0 0 0 0 0 0 0 0 0 -0 0 0 0 0 0 0 0 0 0 0 1 1 1 1 2 2 1 0 0 0 0 1 1 1 0 0 1 1 0 0 1 1 0 0 0 -0 -0 -0 0
0 0 0 0 0 0 0 0 0 0 0 0 0 0 0 0 0 0 0 0 1 1 1 1 1 1 2 1 1 1 1 1 1 1 1 1 1 0 0 1 1 0 0 0 0 -0 0 0 0
0 0 0 0 0 0 0 0 0 0 0 0 0 0 0 0 0 0 1 1 1 0 0 0 0 2 2 1 1 1 1 1 1 0 0 0 0 0 0 0 0 -0 -0 0 0 0 0 0 0
0 0 0 0 0 0 0 -0 0 0 0 0 0 0 0 0 0 0 0 0 0 0 0 0 0 0 0 0 0 0 1 0 0 0 0 0 0 0 0 0 0 -0 0 0 0 0 0 0 0
0 0 0 0 0 0 0 0 0 0 0 0 0 0 0 0 0 0 0 0 0 0 0 0 0 0 0 0 0 0 0 0 0 0 0 0 0 0 0 0 0 0 0 0 0 0 1 0 0
Wind_Speed_500mb
20 12 9 17 5 4 11 17 21 35 4 28 19 16 30 23 14 7 25 47 37 47 59 57 56 55 50 46 42 38 35 33 32 32 36 38 41 45 45 42 37 31 28 26 26 26 26 25 25
14 15 5 10 5 4 12 34 41 17 20 21 18 32 46 23 54 41 35 41 30 41 59 59 56 55 52 48 44 40 37 35 32 32 35 38 40 42 40 37 32 28 25 23 23 23 23 23 23
12 12 5 9 8 15 12 29 16 22 25 26 10 16 24 41 42 30 30 44 33 49 58 59 57 55 53 49 45 41 38 36 32 31 32 37 39 39 36 33 28 24 22 21 20 20 20 21 20
8 7 12 2 20 17 35 35 37 32 23 14 8 7 21 28 37 48 44 37 33 46 54 58 58 56 53 51 47 43 40 38 34 31 30 33 36 36 35 30 26 22 20 20 20 19 19 19 18
5 11 6 10 23 19 39 45 45 28 20 17 9 13 20 29 40 50 47 38 31 49 57 58 59 56 54 53 51 48 46 42 39 33 30 32 37 37 35 31 26 21 20 20 20 18 18 17 17
8 10 1 19 23 22 28 61 50 33 35 6 10 10 12 40 41 56 42 35 25 42 61 61 61 59 56 53 52 52 51 49 45 39 35 33 37 39 38 33 27 23 20 20 20 18 17 15 14
13 4 12 18 23 21 27 66 23 26 24 10 13 8 19 40 35 46 41 30 32 29 52 63 65 64 58 55 53 54 54 53 49 44 39 36 37 40 39 35 30 26 23 20 19 18 16 15 14
13 4 10 12 22 26 36 42 49 35 42 38 24 9 11 42 44 39 46 41 38 37 34 56 65 67 65 61 55 57 56 56 53 48 42 37 36 39 41 39 34 29 25 23 20 18 17 15 14
40 6 9 12 15 21 51 22 28 25 12 16 12 11 20 41 32 38 47 44 50 44 42 45 62 67 66 62 60 56 55 53 51 48 43 40 37 38 42 41 37 32 28 25 23 21 19 17 16
19 18 20 16 17 21 40 24 30 19 36 9 7 4 24 21 27 30 47 53 56 54 49 41 57 67 64 60 56 56 57 58 56 51 48 43 39 37 39 41 39 36 32 28 27 26 25 23 19
16 32 20 32 61 58 38 17 21 19 13 25 17 9 20 9 27 32 37 50 64 61 52 47 37 64 61 57 58 61 64 62 58 55 51 45 41 38 40 43 43 39 35 32 30 28 27 23 21
26 44 48 50 58 50 19 29 7 16 23 35 34 29 33 34 26 31 46 45 61 71 65 57 50 42 60 51 51 56 59 58 56 54 51 47 41 38 35 42 42 39 36 33 33 32 28 26 24
39 30 54 62 64 66 44 21 19 22 29 34 34 37 41 50 48 44 49 52 44 38 63 67 61 45 44 55 51 45 55 55 54 52 51 46 44 43 33 29 35 30 29 36 37 33 28 20 22
24 50 50 57 59 59 23 16 29 40 40 41 42 45 50 61 61 54 43 51 40 7 44 64 63 43 38 37 48 47 39 43 47 46 49 47 41 43 32 35 34 30 27 23 25 22 29 28 25
56 36 26 42 35 20 29 27 29 38 40 50 54 62 62 68 78 63 63 49 55 33 18 52 67 58 57 46 41 36 40 24 30 22 27 25 33 47 33 37 42 43 40 30 29 32 22 27 33
25 22 29 18 17 23 19 47 30 44 60 61 70 67 63 65 68 67 71 71 47 50 41 49 67 65 54 71 51 35 35 28 28 37 34 25 22 29 52 36 37 37 35 45 32 25 33 39 43
20 23 18 20 16 13 28 40 28 54 60 37 64 67 65 68 67 65 63 69 67 47 52 39 59 61 69 63 78 38 36 49 38 48 50 56 55 53 50 47 45 39 37 40 39 42 40 47 47
14 14 17 24 32 42 41 43 25 51 35 36 25 36 50 68 64 62 61 62 67 48 61 49 55 65 70 86 80 48 30 34 39 37 44 49 64 62 57 59 57 57 37 46 44 31 41 38 40
22 29 27 32 42 34 37 39 24 32 40 35 41 48 53 54 52 56 63 63 63 50 63 65 64 74 88 76 72 73 67 49 54 54 47 42 46 43 40 62 57 52 57 62 32 40 37 44 46
36 40 39 31 31 22 14 12 16 24 20 37 37 40 23 46 51 49 59 59 60 59 50 49 60 71 52 76 78 54 87 74 64 63 51 40 33 41 52 33 61 63 53 51 53 64 38 49 37
43 42 31 27 35 8 14 8 13 10 20 47 32 23 8 14 27 51 39 54 59 38 38 48 53 50 51 62 64 66 67 62 77 61 53 52 68 66 69 74 85 80 78 65 51 55 56 41 35
38 41 39 39 30 9 12 10 10 12 23 15 29 24 20 35 18 31 31 45 44 41 44 52 54 48 42 45 66 68 69 82 76 80 71 68 69 55 59 41 50 65 73 73 54 58 57 47 49
36 33 34 39 17 5 19 6 10 15 21 27 18 31 41 45 42 27 31 32 32 30 31 38 39 48 52 62 64 60 64 66 70 67 60 47 56 51 50 44 44 47 51 58 59 52 50 50 53
38 31 32 19 6 10 13 9 10 11 15 21 16 47 46 54 51 50 41 37 19 18 18 30 36 38 45 57 57 57 47 45 47 48 51 50 46 52 54 61 59 56 64 65 47 40 52 47 53
33 16 8 6 14 16 17 12 16 21 15 17 29 46 42 59 51 35 28 29 24 25 20 39 36 38 47 56 60 58 53 55 49 50 50 46 59 64 55 58 75 73 65 46 25 34 53 41 57
19 14 8 12 9 7 13 29 25 38 10 42 58 60 61 55 53 48 36 23 12 16 29 9 27 31 42 49 55 60 51 54 55 42 38 42 50 53 53 61 67 83 80 56 40 34 38 50 60
14 19 13 4 12 9 9 13 11 31 24 30 43 61 60 49 46 35 29 25 19 13 16 23 8 9 38 32 32 36 42 44 50 46 46 43 42 52 56 59 59 64 64 58 50 47 50 66 58
17 12 21 6 1 11 11 5 14 25 24 17 27 38 55 51 44 46 39 36 32 29 28 25 24 24 12 10 28 31 32 34 39 40 41 43 48 55 56 53 39 40 38 47 44 48 51 46 47
19 30 13 11 14 11 3 5 10 18 12 16 20 38 45 33 53 49 48 42 39 35 27 30 36 34 29 21 14 8 15 1 8 9 15 22 32 44 44 27 50 54 38 36 37 38 37 39 41
25 12 14 9 5 4 10 6 6 17 22 23 27 53 47 41 31 41 42 38 33 30 27 29 33 31 29 25 19 17 13 24 25 19 15 19 20 7 4 20 19 14 17 21 31 34 36 44 46
Wind_Direction_500mb
263 259 291 321 25 118 262 263 252 288 359 107 65 55 81 58 124 177 152 182 169 166 163 162 162 163 162 160 158 154 149 142 136 130 138 138 140 141 142 140 137 132 127 124 123 125 128 127 124
244 219 257 271 140 276 267 248 258 286 125 105 87 74 81 76 101 123 150 177 171 173 165 163 166 167 168 166 165 163 158 153 145 138 141 144 145 147 148 145 141 137 134 131 131 134 136 135 131
219 215 256 163 196 217 248 258 295 332 77 51 52 69 92 124 124 136 179 172 174 174 168 164 167 171 173 172 171 169 167 162 154 145 146 151 151 153 154 152 150 146 142 140 141 143 144 142 141
156 197 257 173 243 244 241 271 273 290 105 97 13 57 88 134 132 150 171 178 177 178 171 167 170 175 178 177 178 176 174 171 165 156 152 157 159 160 159 160 160 155 151 152 154 153 152 151 150
213 256 229 228 248 262 270 271 286 311 316 79 91 42 94 108 131 152 176 191 189 181 175 174 173 178 181 183 182 181 180 178 175 168 165 165 169 170 169 172 169 165 163 161 162 163 161 158 158
266 224 269 232 259 262 261 268 272 276 290 97 79 52 123 140 136 154 180 194 201 175 178 178 178 181 184 188 187 185 185 183 182 179 176 176 178 179 180 181 179 177 176 173 171 174 169 165 164
224 315 228 253 265 273 255 263 265 254 256 213 145 106 108 138 141 152 175 184 213 175 178 182 183 182 187 189 192 191 188 188 188 187 187 186 186 189 189 189 189 187 184 184 182 183 183 177 174
251 149 267 262 256 264 269 282 293 294 246 258 179 117 102 127 143 146 167 184 204 194 195 192 190 187 188 189 193 195 192 193 193 194 195 196 196 197 197 197 197 195 192 191 191 193 195 196 195
236 215 231 237 249 267 291 350 337 336 86 77 72 64 117 137 144 148 168 182 196 206 205 209 201 196 193 193 191 196 195 197 200 202 203 205 207 206 204 204 203 203 201 199 198 201 204 208 212
199 212 227 245 256 272 285 314 344 7 343 90 117 141 121 139 154 166 179 182 195 212 209 214 211 203 199 198 196 192 196 200 204 207 209 212 216 216 215 211 210 211 211 209 208 209 209 211 214
243 235 248 228 240 253 270 305 321 351 337 338 356 317 280 196 188 197 201 200 203 218 220 210 222 211 205 204 203 201 200 202 207 211 215 218 222 221 220 216 217 218 220 219 219 222 222 220 219
252 240 241 256 269 274 273 297 278 282 282 299 310 306 292 287 280 234 214 217 215 211 219 227 217 211 211 212 213 215 211 209 210 216 219 221 226 233 222 220 223 226 231 234 234 232 233 235 231
241 247 242 244 248 261 273 270 270 264 273 282 285 285 280 275 276 270 236 222 238 218 207 218 211 203 200 215 220 221 226 222 218 221 227 225 227 228 217 231 234 240 252 246 247 244 239 227 224
247 238 250 249 244 254 269 257 258 263 271 266 265 262 259 265 269 275 272 223 224 220 203 199 194 197 190 207 218 231 234 236 230 231 233 234 233 214 211 234 240 241 252 264 252 248 243 238 240
243 258 249 238 240 252 272 279 252 252 257 257 252 245 245 250 256 262 259 267 233 241 259 205 196 208 194 219 222 226 229 233 217 237 233 241 238 215 202 225 236 245 253 256 254 255 250 250 250
249 249 249 254 213 225 212 260 259 252 248 244 246 241 237 240 251 257 255 251 257 254 255 213 222 224 212 211 205 202 208 212 219 230 233 238 236 230 215 214 235 236 239 247 254 236 236 233 241
242 243 254 254 242 227 210 250 244 250 255 252 237 236 234 235 237 249 258 255 253 253 251 222 212 211 202 193 199 179 195 206 196 209 223 216 218 217 218 216 215 218 228 243 246 259 261 258 257
234 230 243 249 234 233 238 237 233 239 248 264 236 247 222 224 229 237 245 256 250 244 250 236 221 207 195 185 189 187 200 209 212 207 211 221 216 219 219 219 215 217 226 229 225 229 246 239 246
258 245 235 231 239 235 231 231 199 222 243 261 255 248 227 222 230 240 237 244 242 228 239 237 214 195 189 196 195 200 244 228 224 221 217 213 220 219 224 232 224 227 225 218 247 221 239 249 283
244 250 257 278 268 209 179 205 201 210 221 233 243 254 247 219 230 235 235 231 234 223 233 215 201 198 216 205 203 204 200 214 234 227 225 234 249 259 244 264 223 235 246 249 228 218 235 244 252
232 243 254 254 280 230 143 227 211 252 249 242 241 217 225 313 253 230 226 221 221 199 205 203 204 199 211 218 205 193 200 208 217 224 224 248 263 279 265 265 259 246 225 232 220 205 228 261 244
230 229 247 259 269 229 146 239 245 245 250 233 231 183 111 63 32 205 212 202 210 199 204 207 214 214 215 220 203 209 207 216 219 220 242 250 249 236 248 258 253 248 239 223 226 230 236 236 230
242 243 235 246 265 288 279 105 251 232 240 228 216 159 108 91 77 111 141 150 169 188 205 223 225 227 226 222 224 223 216 231 238 242 247 244 246 238 248 254 235 230 217 227 237 239 233 239 251
243 241 245 223 220 281 239 152 271 246 259 171 168 134 115 108 109 94 85 73 75 207 224 213 231 225 218 219 226 225 224 232 233 235 230 234 243 252 252 246 238 234 231 235 237 233 239 238 246
230 217 224 191 207 229 198 256 227 257 268 175 133 124 113 108 107 106 96 73 53 46 224 238 233 235 242 235 229 224 227 238 242 244 239 236 249 250 258 261 250 235 227 222 257 261 231 237 234
219 173 169 188 194 222 243 223 232 249 89 123 125 117 108 93 99 97 93 98 107 65 74 158 238 245 251 251 240 237 241 245 250 251 274 263 255 260 264 264 261 242 232 218 202 193 199 228 230
217 234 211 121 96 4 242 291 268 233 127 119 118 112 110 107 91 93 92 87 81 85 75 51 88 258 247 251 261 259 263 261 264 265 252 257 255 254 254 286 265 238 225 228 217 226 225 219 228
215 181 222 124 59 180 263 355 29 13 21 132 113 115 116 116 108 108 104 101 97 80 82 63 59 70 155 172 225 236 259 261 262 266 266 262 254 256 261 280 292 274 227 222 227 223 218 233 242
186 213 193 166 176 199 206 127 317 341 3 48 71 71 74 68 131 121 117 109 100 95 86 77 67 64 55 51 24 60 69 342 296 273 266 284 291 287 289 273 231 223 233 219 222 234 237 238 249
304 185 161 123 223 155 150 221 332 27 15 62 54 76 72 79 81 127 122 117 113 106 104 93 83 77 64 66 67 55 65 77 74 76 62 65 36 88 214 231 215 222 218 231 241 250 254 253 260
Wind_Speed_850mb
20 12 9 17 5 4 11 17 21 35 4 28 19 16 30 23 14 7 25 47 37 47 59 57 56 55 50 46 42 38 35 33 32 32 36 38 41 45 45 42 37 31 28 26 26 26 26 25 25
14 15 5 10 5 4 12 34 41 17 20 21 18 32 46 23 54 41 35 41 30 41 59 59 56 55 52 48 44 40 37 35 32 32 35 38 40 42 40 37 32 28 25 23 23 23 23 23 23
12 12 5 9 8 15 12 29 16 22 25 26 10 16 24 41 42 30 30 44 33 49 58 59 57 55 53 49 45 41 38 36 32 31 32 37 39 39 36 33 28 24 22 21 20 20 20 21 20
8 7 12 2 20 17 35 35 37 32 23 14 8 7 21 28 37 48 44 37 33 46 54 58 58 56 53 51 47 43 40 38 34 31 30 33 36 36 35 30 26 22 20 20 20 19 19 19 18
5 11 6 10 23 19 39 45 45 28 20 17 9 13 20 29 40 50 47 38 31 49 57 58 59 56 54 53 51 48 46 42 39 33 30 32 37 37 35 31 26 21 20 20 20 18 18 17 17
8 10 1 19 23 22 28 61 50 33 35 6 10 10 12 40 41 56 42 35 25 42 61 61 61 59 56 53 52 52 51 49 45 39 35 33 37 39 38 33 27 23 20 20 20 18 17 15 14
13 4 12 18 23 21 27 66 23 26 24 10 13 8 19 40 35 46 41 30 32 29 52 63 65 64 58 55 53 54 54 53 49 44 39 36 37 40 39 35 30 26 23 20 19 18 16 15 14
13 4 10 12 22 26 36 42 49 35 42 38 24 9 11 42 44 39 46 41 38 37 34 56 65 67 65 61 55 57 56 56 53 48 42 37 36 39 41 39 34 29 25 23 20 18 17 15 14
40 6 9 12 15 21 51 22 28 25 12 16 12 11 20 41 32 38 47 44 50 44 42 45 62 67 66 62 60 56 55 53 51 48 43 40 37 38 42 41 37 32 28 25 23 21 19 17 16
19 18 20 16 17 21 40 24 30 19 36 9 7 4 24 21 27 30 47 53 56 54 49 41 57 67 64 60 56 56 57 58 56 51 48 43 39 37 39 41 39 36 32 28 27 26 25 23 19
16 32 20 32 61 58 38 17 21 19 13 25 17 9 20 9 27 32 37 50 64 61 52 47 37 64 61 57 58 61 64 62 58 55 51 45 41 38 40 43 43 39 35 32 30 28 27 23 21
26 44 48 50 58 50 19 29 7 16 23 35 34 29 33 34 26 31 46 45 61 71 65 57 50 42 60 51 51 56 59 58 56 54 51 47 41 38 35 42 42 39 36 33 33 32 28 26 24
39 30 54 62 64 66 44 21 19 22 29 34 34 37 41 50 48 44 49 52 44 38 63 67 61 45 44 55 51 45 55 55 54 52 51 46 44 43 33 29 35 30 29 36 37 33 28 20 22
24 50 50 57 59 59 23 16 29 40 40 41 42 45 50 61 61 54 43 51 40 7 44 64 63 43 38 37 48 47 39 43 47 46 49 47 41 43 32 35 34 30 27 23 25 22 29 28 25
56 36 26 42 35 20 29 27 29 38 40 50 54 62 62 68 78 63 63 49 55 33 18 52 67 58 57 46 41 36 40 24 30 22 27 25 33 47 33 37 42 43 40 30 29 32 22 27 33
25 22 29 18 17 23 19 47 30 44 60 61 70 67 63 65 68 67 71 71 47 50 41 49 67 65 54 71 51 35 35 28 28 37 34 25 22 29 52 36 37 37 35 45 32 25 33 39 43
20 23 18 20 16 13 28 40 28 54 60 37 64 67 65 68 67 65 63 69 67 47 52 39 59 61 69 63 78 38 36 49 38 48 50 56 55 53 50 47 45 39 37 40 39 42 40 47 47
14 14 17 24 32 42 41 43 25 51 35 36 25 36 50 68 64 62 61 62 67 48 61 49 55 65 70 86 80 48 30 34 39 37 44 49 64 62 57 59 57 57 37 46 44 31 41 38 40
22 29 27 32 42 34 37 39 24 32 40 35 41 48 53 54 52 56 63 63 63 50 63 65 64 74 88 76 72 73 67 49 54 54 47 42 46 43 40 62 57 52 57 62 32 40 37 44 46
36 40 39 31 31 22 14 12 16 24 20 37 37 40 23 46 51 49 59 59 60 59 50 49 60 71 52 76 78 54 87 74 64 63 51 40 33 41 52 33 61 63 53 51 53 64 38 49 37
43 42 31 27 35 8 14 8 13 10 20 47 32 23 8 14 27 51 39 54 59 38 38 48 53 50 51 62 64 66 67 62 77 61 53 52 68 66 69 74 85 80 78 65 51 55 56 41 35
38 41 39 39 30 9 12 10 10 12 23 15 29 24 20 35 18 31 31 45 44 41 44 52 54 48 42 45 66 68 69 82 76 80 71 68 69 55 59 41 50 65 73 73 54 58 57 47 49
36 33 34 39 17 5 19 6 10 15 21 27 18 31 41 45 42 27 31 32 32 30 31 38 39 48 52 62 64 60 64 66 70 67 60 47 56 51 50 44 44 47 51 58 59 52 50 50 53
38 31 32 19 6 10 13 9 10 11 15 21 16 47 46 54 51 50 41 37 19 18 18 30 36 38 45 57 57 57 47 45 47 48 51 50 46 52 54 61 59 56 64 65 47 40 52 47 53
33 16 8 6 14 16 17 12 16 21 15 17 29 46 42 59 51 35 28 29 24 25 20 39 36 38 47 56 60 58 53 55 49 50 50 46 59 64 55 58 75 73 65 46 25 34 53 41 57
19 14 8 12 9 7 13 29 25 38 10 42 58 60 61 55 53 48 36 23 12 16 29 9 27 31 42 49 55 60 51 54 55 42 38 42 50 53 53 61 67 83 80 56 40 34 38 50 60
14 19 13 4 12 9 9 13 11 31 24 30 43 61 60 49 46 35 29 25 19 13 16 23 8 9 38 32 32 36 42 44 50 46 46 43 42 52 56 59 59 64 64 58 50 47 50 66 58
17 12 21 6 1 11 11 5 14 25 24 17 27 38 55 51 44 46 39 36 32 29 28 25 24 24 12 10 28 31 32 34 39 40 41 43 48 55 56 53 39 40 38 47 44 48 51 46 47
19 30 13 11 14 11 3 5 10 18 12 16 20 38 45 33 53 49 48 42 39 35 27 30 36 34 29 21 14 8 15 1 8 9 15 22 32 44 44 27 50 54 38 36 37 38 37 39 41
25 12 14 9 5 4 10 6 6 17 22 23 27 53 47 41 31 41 42 38 33 30 27 29 33 31 29 25 19 17 13 24 25 19 15 19 20 7 4 20 19 14 17 21 31 34 36 44 46
Wind_Direction_850mb
263 259 291 321 25 118 262 263 252 288 359 107 65 55 81 58 124 177 152 182 169 166 163 162 162 163 162 160 158 154 149 142 136 130 138 138 140 141 142 140 137 132 127 124 123 125 128 127 124
244 219 257 271 140 276 267 248 258 286 125 105 87 74 81 76 101 123 150 177 171 173 165 163 166 167 168 166 165 163 158 153 145 138 141 144 145 147 148 145 141 137 134 131 131 134 136 135 131
219 215 256 163 196 217 248 258 295 332 77 51 52 69 92 124 124 136 179 172 174 174 168 164 167 171 173 172 171 169 167 162 154 145 146 151 151 153 154 152 150 146 142 140 141 143 144 142 141
156 197 257 173 243 244 241 271 273 290 105 97 13 57 88 134 132 150 171 178 177 178 171 167 170 175 178 177 178 176 174 171 165 156 152 157 159 160 159 160 160 155 151 152 154 153 152 151 150
213 256 229 228 248 262 270 271 286 311 316 79 91 42 94 108 131 152 176 191 189 181 175 174 173 178 181 183 182 181 180 178 175 168 165 165 169 170 169 172 169 165 163 161 162 163 161 158 158
266 224 269 232 259 262 261 268 272 276 290 97 79 52 123 140 136 154 180 194 201 175 178 178 178 181 184 188 187 185 185 183 182 179 176 176 178 179 180 181 179 177 176 173 171 174 169 165 164
224 315 228 253 265 273 255 263 265 254 256 213 145 106 108 138 141 152 175 184 213 175 178 182 183 182 187 189 192 191 188 188 188 187 187 186 186 189 189 189 189 187 184 184 182 183 183 177 174
251 149 267 262 256 264 269 282 293 294 246 258 179 117 102 127 143 146 167 184 204 194 195 192 190 187 188 189 193 195 192 193 193 194 195 196 196 197 197 197 197 195 192 191 191 193 195 196 195
236 215 231 237 249 267 291 350 337 336 86 77 72 64 117 137 144 148 168 182 196 206 205 209 201 196 193 193 191 196 195 197 200 202 203 205 207 206 204 204 203 203 201 199 198 201 204 208 212
199 212 227 245 256 272 285 314 344 7 343 90 117 141 121 139 154 166 179 182 195 212 209 214 211 203 199 198 196 192 196 200 204 207 209 212 216 216 215 211 210 211 211 209 208 209 209 211 214
243 235 248 228 240 253 270 305 321 351 337 338 356 317 280 196 188 197 201 200 203 218 220 210 222 211 205 204 203 201 200 202 207 211 215 218 222 221 220 216 217 218 220 219 219 222 222 220 219
252 240 241 256 269 274 273 297 278 282 282 299 310 306 292 287 280 234 214 217 215 211 219 227 217 211 211 212 213 215 211 209 210 216 219 221 226 233 222 220 223 226 231 234 234 232 233 235 231
241 247 242 244 248 261 273 270 270 264 273 282 285 285 280 275 276 270 236 222 238 218 207 218 211 203 200 215 220 221 226 222 218 221 227 225 227 228 217 231 234 240 252 246 247 244 239 227 224
247 238 250 249 244 254 269 257 258 263 271 266 265 262 259 265 269 275 272 223 224 220 203 199 194 197 190 207 218 231 234 236 230 231 233 234 233 214 211 234 240 241 252 264 252 248 243 238 240
243 258 249 238 240 252 272 279 252 252 257 257 252 245 245 250 256 262 259 267 233 241 259 205 196 208 194 219 222 226 229 233 217 237 233 241 238 215 202 225 236 245 253 256 254 255 250 250 250
249 249 249 254 213 225 212 260 259 252 248 244 246 241 237 240 251 257 255 251 257 254 255 213 222 224 212 211 205 202 208 212 219 230 233 238 236 230 215 214 235 236 239 247 254 236 236 233 241
242 243 254 254 242 227 210 250 244 250 255 252 237 236 234 235 237 249 258 255 253 253 251 222 212 211 202 193 199 179 195 206 196 209 223 216 218 217 218 216 215 218 228 243 246 259 261 258 257
234 230 243 249 234 233 238 237 233 239 248 264 236 247 222 224 229 237 245 256 250 244 250 236 221 207 195 185 189 187 200 209 212 207 211 221 216 219 219 219 215 217 226 229 225 229 246 239 246
258 245 235 231 239 235 231 231 199 222 243 261 255 248 227 222 230 240 237 244 242 228 239 237 214 195 189 196 195 200 244 228 224 221 217 213 220 219 224 232 224 227 225 218 247 221 239 249 283
244 250 257 278 268 209 179 205 201 210 221 233 243 254 247 219 230 235 235 231 234 223 233 215 201 198 216 205 203 204 200 214 234 227 225 234 249 259 244 264 223 235 246 249 228 218 235 244 252
232 243 254 254 280 230 143 227 211 252 249 242 241 217 225 313 253 230 226 221 221 199 205 203 204 199 211 218 205 193 200 208 217 224 224 248 263 279 265 265 259 246 225 232 220 205 228 261 244
230 229 247 259 269 229 146 239 245 245 250 233 231 183 111 63 32 205 212 202 210 199 204 207 214 214 215 220 203 209 207 216 219 220 242 250 249 236 248 258 253 248 239 223 226 230 236 236 230
242 243 235 246 265 288 279 105 251 232 240 228 216 159 108 91 77 111 141 150 169 188 205 223 225 227 226 222 224 223 216 231 238 242 247 244 246 238 248 254 235 230 217 227 237 239 233 239 251
243 241 245 223 220 281 239 152 271 246 259 171 168 134 115 108 109 94 85 73 75 207 224 213 231 225 218 219 226 225 224 232 233 235 230 234 243 252 252 246 238 234 231 235 237 233 239 238 246
230 217 224 191 207 229 198 256 227 257 268 175 133 124 113 108 107 106 96 73 53 46 224 238 233 235 242 235 229 224 227 238 242 244 239 236 249 250 258 261 250 235 227 222 257 261 231 237 234
219 173 169 188 194 222 243 223 232 249 89 123 125 117 108 93 99 97 93 98 107 65 74 158 238 245 251 251 240 237 241 245 250 251 274 263 255 260 264 264 261 242 232 218 202 193 199 228 230
217 234 211 121 96 4 242 291 268 233 127 119 118 112 110 107 91 93 92 87 81 85 75 51 88 258 247 251 261 259 263 261 264 265 252 257 255 254 254 286 265 238 225 228 217 226 225 219 228
215 181 222 124 59 180 263 355 29 13 21 132 113 115 116 116 108 108 104 101 97 80 82 63 59 70 155 172 225 236 259 261 262 266 266 262 254 256 261 280 292 274 227 222 227 223 218 233 242
186 213 193 166 176 199 206 127 317 341 3 48 71 71 74 68 131 121 117 109 100 95 86 77 67 64 55 51 24 60 69 342 296 273 266 284 291 287 289 273 231 223 233 219 222 234 237 238 249
304 185 161 123 223 155 150 221 332 27 15 62 54 76 72 79 81 127 122 117 113 106 104 93 83 77 64 66 67 55 65 77 74 76 62 65 36 88 214 231 215 222 218 231 241 250 254 253 260